| time (UTC) | temp F | wind direction | speed knots | gust knots | rain 1hr in | rain 24hr in | rain mn in | humidity % | barometer mb |
| 20260508040041 | 45 | 0 | 0.0 | 0.0 | 0.00 | 0.00 | 0.00 | 61 | 1007.4 |
| 20260508034534 | 46 | 0 | 0.0 | 0.9 | 0.00 | 0.00 | 0.00 | 63 | 1007.2 |
| 20260508033044 | 47 | 310 | 0.0 | 0.9 | 0.00 | 0.00 | 0.00 | 56 | 1007.2 |
| 20260508031544 | 48 | 0 | 0.0 | 1.7 | 0.00 | 0.00 | 0.00 | 56 | 1007.2 |
| 20260508030045 | 48 | 304 | 0.0 | 1.7 | 0.00 | 0.00 | 0.00 | 52 | 1007.0 |
| 20260508024544 | 48 | 0 | 0.0 | 0.9 | 0.00 | 0.01 | 0.00 | 55 | 1007.3 |
| 20260508023034 | 49 | 0 | 0.0 | 2.6 | 0.00 | 0.01 | 0.00 | 52 | 1007.1 |
| 20260508021536 | 48 | 319 | 0.0 | 1.7 | 0.00 | 0.01 | 0.00 | 62 | 1006.8 |
| 20260508020044 | 48 | 0 | 0.0 | 1.7 | 0.00 | 0.01 | 0.00 | 61 | 1006.4 |
| 20260508014551 | 47 | 0 | 0.0 | 0.9 | 0.00 | 0.01 | 0.00 | 66 | 1006.4 |
| 20260508013045 | 49 | 0 | 0.0 | 2.6 | 0.00 | 0.01 | 0.00 | 63 | 1006.0 |
| 20260508011541 | 50 | 271 | 0.0 | 0.9 | 0.00 | 0.01 | 0.00 | 56 | 1005.9 |
| 20260508010034 | 51 | 0 | 0.0 | 0.0 | 0.00 | 0.01 | 0.00 | 56 | 1005.9 |
| 20260508004538 | 52 | 0 | 0.0 | 0.9 | 0.00 | 0.02 | 0.00 | 46 | 1005.7 |
| 20260508003053 | 54 | 0 | 0.0 | 2.6 | 0.00 | 0.02 | 0.00 | 42 | 1005.6 |
| 20260508001545 | 55 | 0 | 0.0 | 2.6 | 0.00 | 0.02 | 0.00 | 39 | 1005.3 |
| 20260508000045 | 56 | 267 | 0.9 | 3.5 | 0.00 | 0.02 | 0.00 | 36 | 1005.2 |
| 20260507234540 | 57 | 0 | 0.0 | 3.5 | 0.00 | 0.02 | 0.00 | 37 | 1005.1 |
| 20260507233040 | 58 | 299 | 0.9 | 3.5 | 0.00 | 0.02 | 0.00 | 34 | 1005.0 |
| 20260507231541 | 58 | 271 | 0.9 | 3.5 | 0.00 | 0.02 | 0.00 | 34 | 1004.9 |
| 20260507230038 | 59 | 247 | 3.5 | 9.6 | 0.00 | 0.02 | 0.00 | 32 | 1004.8 |
| 20260507224545 | 60 | 310 | 2.6 | 8.7 | 0.00 | 0.06 | 0.00 | 33 | 1004.6 |
| 20260507223052 | 60 | 296 | 3.5 | 7.8 | 0.00 | 0.06 | 0.00 | 32 | 1004.4 |
| 20260507221537 | 60 | 293 | 1.7 | 9.6 | 0.00 | 0.06 | 0.00 | 32 | 1004.4 |
| 20260507220045 | 61 | 270 | 3.5 | 7.8 | 0.00 | 0.06 | 0.00 | 31 | 1004.2 |
| 20260507214542 | 62 | 340 | 2.6 | 7.0 | 0.00 | 0.11 | 0.00 | 32 | 1004.2 |
| 20260507213041 | 62 | 262 | 2.6 | 8.7 | 0.00 | 0.11 | 0.00 | 31 | 1004.2 |
| 20260507211549 | 63 | 254 | 3.5 | 7.8 | 0.00 | 0.11 | 0.00 | 32 | 1004.3 |
| 20260507210040 | 63 | 271 | 2.6 | 8.7 | 0.00 | 0.11 | 0.00 | 33 | 1004.3 |
| 20260507204537 | 62 | 257 | 2.6 | 8.7 | 0.00 | 0.19 | 0.00 | 34 | 1003.9 |
| 20260507203044 | 61 | 281 | 3.5 | 8.7 | 0.00 | 0.19 | 0.00 | 34 | 1004.2 |
| 20260507201540 | 62 | 293 | 2.6 | 10.4 | 0.00 | 0.19 | 0.00 | 32 | 1004.0 |
| 20260507200042 | 63 | 281 | 4.3 | 7.0 | 0.00 | 0.19 | 0.00 | 33 | 1004.0 |
| 20260507194541 | 63 | 276 | 3.5 | 7.8 | 0.00 | 0.23 | 0.00 | 34 | 1004.1 |
| 20260507193041 | 63 | 281 | 1.7 | 7.8 | 0.00 | 0.23 | 0.00 | 36 | 1004.2 |
| 20260507191548 | 63 | 294 | 3.5 | 11.3 | 0.00 | 0.23 | 0.00 | 30 | 1004.2 |
| 20260507190041 | 62 | 238 | 4.3 | 12.2 | 0.00 | 0.23 | 0.00 | 35 | 1004.4 |
| 20260507184534 | 61 | 5 | 2.6 | 12.2 | 0.00 | 0.23 | 0.00 | 38 | 1004.2 |
| 20260507183034 | 61 | 275 | 3.5 | 9.6 | 0.00 | 0.23 | 0.00 | 40 | 1004.5 |
| 20260507181533 | 61 | 274 | 4.3 | 9.6 | 0.00 | 0.23 | 0.00 | 40 | 1004.4 |
| 20260507180046 | 61 | 300 | 1.7 | 7.8 | 0.00 | 0.23 | 0.00 | 50 | 1004.4 |
| 20260507174539 | 60 | 288 | 1.7 | 7.0 | 0.00 | 0.23 | 0.00 | 53 | 1004.4 |
| 20260507173036 | 60 | 310 | 3.5 | 8.7 | 0.00 | 0.23 | 0.00 | 49 | 1004.5 |
| 20260507171535 | 59 | 182 | 3.5 | 9.6 | 0.00 | 0.23 | 0.00 | 49 | 1004.7 |
| 20260507170035 | 59 | 303 | 3.5 | 9.6 | 0.00 | 0.23 | 0.00 | 48 | 1004.9 |
| 20260507164540 | 58 | 283 | 3.5 | 10.4 | 0.00 | 0.23 | 0.00 | 51 | 1005.1 |
| 20260507163040 | 58 | 286 | 3.5 | 8.7 | 0.00 | 0.23 | 0.00 | 53 | 1005.2 |
| 20260507161536 | 59 | 296 | 3.5 | 9.6 | 0.00 | 0.23 | 0.00 | 51 | 1005.0 |
| 20260507160038 | 57 | 300 | 0.0 | 3.5 | 0.00 | 0.23 | 0.00 | 62 | 1005.6 |
| 20260507154541 | 58 | 162 | 1.7 | 6.1 | 0.00 | 0.23 | 0.00 | 61 | 1005.7 |
| 20260507153040 | 57 | 180 | 0.9 | 2.6 | 0.00 | 0.23 | 0.00 | 66 | 1005.7 |
| 20260507151546 | 57 | 198 | 0.0 | 4.3 | 0.00 | 0.23 | 0.00 | 68 | 1006.0 |
| 20260507150040 | 58 | 176 | 0.9 | 3.5 | 0.00 | 0.23 | 0.00 | 64 | 1005.9 |
| 20260507144544 | 57 | 175 | 0.9 | 3.5 | 0.00 | 0.23 | 0.00 | 65 | 1005.8 |
| 20260507143044 | 57 | 229 | 1.7 | 3.5 | 0.00 | 0.23 | 0.00 | 65 | 1005.9 |
| 20260507141540 | 57 | 140 | 0.0 | 2.6 | 0.00 | 0.23 | 0.00 | 67 | 1006.0 |
| 20260507140056 | 57 | 123 | 0.9 | 3.5 | 0.00 | 0.23 | 0.00 | 69 | 1006.2 |
| 20260507134536 | 56 | 25 | 0.9 | 2.6 | 0.00 | 0.23 | 0.00 | 66 | 1006.4 |
| 20260507133046 | 55 | 272 | 0.9 | 5.2 | 0.00 | 0.23 | 0.00 | 67 | 1006.4 |
| 20260507131547 | 54 | 296 | 0.9 | 5.2 | 0.00 | 0.23 | 0.00 | 70 | 1006.6 |
| 20260507130043 | 54 | 322 | 0.9 | 3.5 | 0.00 | 0.23 | 0.00 | 73 | 1006.7 |
| 20260507124540 | 53 | 311 | 0.0 | 3.5 | 0.00 | 0.23 | 0.00 | 73 | 1006.6 |
| 20260507123042 | 52 | 265 | 0.9 | 6.1 | 0.00 | 0.23 | 0.00 | 75 | 1006.7 |
| 20260507121545 | 51 | 19 | 0.0 | 4.3 | 0.00 | 0.23 | 0.00 | 81 | 1006.9 |
| 20260507120044 | 49 | 360 | 0.9 | 4.3 | 0.00 | 0.23 | 0.00 | 86 | 1006.7 |
| 20260507114544 | 49 | 360 | 0.0 | 2.6 | 0.00 | 0.23 | 0.00 | 90 | 1006.7 |
| 20260507113041 | 48 | 0 | 0.9 | 2.6 | 0.00 | 0.23 | 0.00 | 91 | 1006.8 |
| 20260507111544 | 48 | 284 | 0.0 | 1.7 | 0.00 | 0.23 | 0.00 | 93 | 1006.5 |
| 20260507110036 | 48 | 0 | 0.0 | 0.9 | 0.00 | 0.23 | 0.00 | 93 | 1006.7 |
| 20260507104544 | 48 | 0 | 0.0 | 0.9 | 0.00 | 0.23 | 0.00 | 94 | 1006.8 |
| 20260507103043 | 48 | 0 | 0.0 | 1.7 | 0.00 | 0.23 | 0.00 | 93 | 1006.6 |
| 20260507101558 | 48 | 0 | 0.0 | 0.9 | 0.00 | 0.23 | 0.00 | 93 | 1006.6 |
| 20260507100039 | 48 | 0 | 0.0 | 1.7 | 0.00 | 0.23 | 0.00 | 93 | 1006.8 |
| 20260507094555 | 48 | 0 | 0.0 | 3.5 | 0.00 | 0.23 | 0.00 | 92 | 1006.5 |
| 20260507093044 | 48 | 0 | 0.0 | 1.7 | 0.00 | 0.23 | 0.00 | 93 | 1006.1 |
| 20260507091555 | 48 | 0 | 0.0 | 1.7 | 0.00 | 0.23 | 0.00 | 92 | 1006.5 |
| 20260507090058 | 48 | 0 | 0.0 | 1.7 | 0.00 | 0.23 | 0.00 | 91 | 1005.8 |
| 20260507084536 | 49 | 0 | 0.0 | 1.7 | 0.00 | 0.23 | 0.00 | 90 | 1005.8 |
| 20260507083035 | 49 | 360 | 0.0 | 3.5 | 0.00 | 0.23 | 0.00 | 89 | 1006.0 |
| 20260507081552 | 49 | 360 | 0.9 | 3.5 | 0.00 | 0.23 | 0.00 | 88 | 1006.0 |
| 20260507080045 | 50 | 360 | 0.9 | 3.5 | 0.00 | 0.23 | 0.00 | 88 | 1005.8 |
| 20260507074544 | 50 | 360 | 0.9 | 3.5 | 0.00 | 0.23 | 0.00 | 88 | 1005.5 |
| 20260507073053 | 50 | 360 | 0.9 | 3.5 | 0.00 | 0.23 | 0.00 | 89 | 1005.3 |
| 20260507071535 | 50 | 0 | 0.0 | 2.6 | 0.00 | 0.23 | 0.00 | 89 | 1005.5 |
| 20260507070121 | 50 | 360 | 0.0 | 4.3 | 0.00 | 0.23 | 0.00 | 88 | 1004.8 |
| 20260507064548 | 51 | 360 | 1.7 | 4.3 | 0.00 | 0.23 | 0.00 | 88 | 1004.9 |
| 20260507063041 | 51 | 360 | 0.9 | 3.5 | 0.00 | 0.23 | 0.00 | 89 | 1005.1 |
| 20260507061539 | 51 | 360 | 1.7 | 5.2 | 0.00 | 0.23 | 0.00 | 89 | 1005.0 |
| 20260507060040 | 52 | 360 | 0.9 | 3.5 | 0.00 | 0.23 | 0.00 | 90 | 1004.9 |
| 20260507054550 | 52 | 360 | 0.9 | 3.5 | 0.00 | 0.23 | 0.00 | 91 | 1005.0 |
| 20260507053045 | 52 | 360 | 0.9 | 4.3 | 0.00 | 0.23 | 0.00 | 91 | 1004.3 |
| 20260507051543 | 53 | 360 | 1.7 | 7.0 | 0.00 | 0.23 | 0.00 | 92 | 1004.7 |
| 20260507050041 | 53 | 360 | 1.7 | 7.8 | 0.00 | 0.23 | 0.00 | 93 | 1004.5 |
| 20260507044544 | 53 | 360 | 0.9 | 7.0 | 0.00 | 0.23 | 0.00 | 95 | 1004.4 |
| 20260507043044 | 54 | 360 | 1.7 | 7.0 | 0.00 | 0.23 | 0.00 | 97 | 1004.3 |
| 20260507041544 | 54 | 360 | 1.7 | 7.0 | 0.00 | 0.23 | 0.00 | 98 | 1003.7 |